Weather reports worldwide

Advertisment
San Antonio, tx, United States of America (2074901): temperature & dewpoint: 06.12.2019 22:00:00 - 12.12.2019 22:00:00 (CST)San Antonio, tx, United States of America (2074901): wind speed & gusts: 06.12.2019 22:00:00 - 12.12.2019 22:00:00 (CST)San Antonio, tx, United States of America (2074901): wind direction: 06.12.2019 22:00:00 - 12.12.2019 22:00:00 (CST)San Antonio, tx, United States of America (2074901): reduced air pressure: 06.12.2019 22:00:00 - 12.12.2019 22:00:00 (CST)San Antonio, tx, United States of America (2074901): visibility: 06.12.2019 22:00:00 - 12.12.2019 22:00:00 (CST)San Antonio, tx, United States of America (2074901): precipitation: 06.12.2019 22:00:00 - 12.12.2019 22:00:00 (CST)
Date & Time tt [°C] td [°C] ff [km/h] ff [kn] fx [km/h] fx [kn] dd ppp [hPa] vv [km] rr [mm]
12.12.2019 22:00:00 6,1 4,4 0 0 - - N 1019,4 16 -
12.12.2019 21:00:00 7,2 5,0 0 0 - - N 1019,1 16 -
12.12.2019 20:00:00 8,3 5,6 0 0 - - N 1019,5 16 -
12.12.2019 19:00:00 10,0 6,1 0 0 - - N 1019,5 16 -
12.12.2019 18:00:00 13,3 5,6 5 3 - - S 1019,4 16 -
12.12.2019 17:00:00 15,6 5,0 8 4 - - S 1019,4 16 -
12.12.2019 16:00:00 16,7 4,4 13 7 - - SSW 1019,7 16 -
12.12.2019 15:00:00 16,1 3,9 15 8 - - S 1020,2 16 -
12.12.2019 14:00:00 16,1 5,6 15 8 - - S 1021,1 16 -
12.12.2019 13:00:00 13,9 5,0 9 5 - - - 1022,9 16 -
12.12.2019 12:00:00 12,8 5,0 9 5 - - SSW 1024,3 16 -
12.12.2019 11:00:00 11,7 3,3 5 3 - - ESE 1025,8 16 -
12.12.2019 10:00:00 8,9 3,9 0 0 - - N 1026,3 16 -
12.12.2019 09:00:00 6,7 3,3 5 3 - - NNW 1026,3 16 -
12.12.2019 08:00:00 5,0 3,3 0 0 - - N 1025,7 16 -
12.12.2019 07:00:00 2,8 1,7 0 0 - - N 1025,7 16 -
12.12.2019 06:00:00 1,1 0,6 0 0 - - N 1025,4 16 -
12.12.2019 05:00:00 0,6 0,6 0 0 - - N 1025,5 16 -
12.12.2019 04:00:00 1,1 1,1 0 0 - - N 1026,2 16 -
12.12.2019 03:00:00 2,2 1,1 5 3 - - NNW 1026,9 16 -
12.12.2019 02:00:00 1,1 0,6 0 0 - - N 1028,2 16 -
12.12.2019 01:00:00 1,1 0,6 0 0 - - N 1029,1 16 -
12.12.2019 00:00:00 2,8 1,7 0 0 - - N 1029,9 16 -
11.12.2019 23:00:00 2,8 1,7 0 0 - - N 1030,1 16 -
11.12.2019 22:00:00 3,3 1,7 0 0 - - N 1030,1 16 -
11.12.2019 21:00:00 5,0 2,2 5 3 - - ESE 1029,7 16 -
11.12.2019 20:00:00 8,3 2,2 9 5 - - ENE 1029,5 16 -
11.12.2019 19:00:00 8,9 3,3 5 3 - - NE 1029,6 16 -
11.12.2019 18:00:00 10,0 2,8 8 4 - - NE 1029,2 16 -
11.12.2019 17:00:00 12,2 3,3 11 6 - - ENE 1028,9 16 -
11.12.2019 16:00:00 12,8 3,9 13 7 - - ENE 1028,9 16 -
11.12.2019 15:00:00 11,1 3,9 11 6 - - N 1029,8 16 -
11.12.2019 14:00:00 8,9 3,3 13 7 - - N 1030,9 16 0,0
11.12.2019 13:00:00 6,1 2,8 11 6 - - NE 1032,6 16 -
11.12.2019 12:00:00 5,0 2,8 13 7 - - N 1033,8 16 -
11.12.2019 11:00:00 3,9 2,8 11 6 - - NNE 1034,8 13 -
11.12.2019 10:00:00 2,8 2,2 15 8 - - NNE 1034,8 11 -
11.12.2019 09:00:00 2,8 1,7 13 7 - - NE 1034,4 13 -
11.12.2019 08:00:00 1,7 1,1 15 8 - - ENE 1033,6 16 -
11.12.2019 07:00:00 1,7 1,1 8 4 - - NNE 1033,0 16 -
11.12.2019 06:00:00 2,2 1,1 8 4 - - N 1032,1 16 -
11.12.2019 05:00:00 2,8 2,2 5 3 - - N 1031,6 16 -
11.12.2019 04:00:00 3,3 2,2 8 4 - - NNE 1031,4 16 -
11.12.2019 03:00:00 4,4 2,8 8 4 - - NNE 1031,3 16 -
11.12.2019 02:00:00 5,6 2,8 15 8 - - NNE 1030,8 16 -
11.12.2019 01:00:00 6,7 3,3 16 9 - - NNE 1030,6 16 -
11.12.2019 00:00:00 7,2 4,4 9 5 - - NNE 1030,5 16 -
10.12.2019 23:00:00 7,2 4,4 16 9 - - NNE 1030,4 16 -
10.12.2019 22:00:00 7,2 4,4 16 9 - - NNE 1030,2 16 -
10.12.2019 21:00:00 7,2 4,4 15 8 - - NNE 1029,7 16 -
10.12.2019 20:00:00 7,2 4,4 15 8 - - N 1029,0 16 -
10.12.2019 19:00:00 7,8 5,0 16 9 - - NNE 1028,0 16 -
10.12.2019 18:00:00 8,3 5,0 13 7 - - N 1026,8 16 -
10.12.2019 17:00:00 8,3 5,0 13 7 - - NNE 1026,0 16 -
10.12.2019 16:00:00 8,9 5,6 22 12 - - N 1025,2 16 -
10.12.2019 15:00:00 8,9 5,6 24 13 - - N 1024,3 16 -
10.12.2019 14:00:00 8,9 6,1 18 10 - - NNE 1023,3 16 -
10.12.2019 13:00:00 8,3 6,1 24 13 - - N 1023,8 16 -
10.12.2019 12:00:00 7,8 6,1 16 9 - - NNE 1023,8 16 -
10.12.2019 11:00:00 7,2 6,7 18 10 - - NNE 1023,4 16 0,5
10.12.2019 10:00:00 7,2 6,7 13 7 - - NNE 1023,3 15 0,3
10.12.2019 09:00:00 7,2 6,7 21 11 - - NNE 1021,0 16 1,3
10.12.2019 08:00:00 7,2 6,7 16 9 - - N 1019,8 8 4,3
10.12.2019 07:00:00 9,4 5,6 16 9 54 29 N 1018,6 16 0,0
10.12.2019 06:00:00 10,6 3,9 29 16 54 29 N 1016,7 16 0,0
10.12.2019 05:00:00 12,2 3,9 18 10 48 26 N 1015,6 16 0,0
10.12.2019 04:00:00 12,2 4,4 26 14 54 29 NNE 1015,2 16 0,0
10.12.2019 03:00:00 13,9 3,3 28 15 55 30 NNE 1014,0 16 -
10.12.2019 02:00:00 15,0 3,3 26 14 55 30 NNE 1013,0 16 -
10.12.2019 01:00:00 16,7 4,4 31 17 52 28 NNE 1012,2 16 -
10.12.2019 00:00:00 17,8 5,6 24 13 - - NNE 1012,2 16 -
09.12.2019 23:00:00 20,0 6,7 16 9 - - NNE 1011,8 16 -
09.12.2019 22:00:00 20,0 8,9 16 9 - - NNE 1011,1 16 -
09.12.2019 21:00:00 18,3 16,7 11 6 - - NNW 1010,1 13 -
09.12.2019 20:00:00 18,3 16,7 8 4 - - NNE 1009,4 13 -
09.12.2019 19:00:00 18,9 16,7 5 3 - - ENE 1008,8 13 -
09.12.2019 18:00:00 21,1 17,2 5 3 - - ESE 1007,8 15 -
09.12.2019 17:00:00 22,8 17,8 9 5 - - ESE 1007,3 15 -
09.12.2019 16:00:00 23,9 17,8 11 6 - - ESE 1007,3 13 -
09.12.2019 15:00:00 23,3 17,8 5 3 - - - 1007,4 11 -
09.12.2019 14:00:00 22,8 17,8 0 0 - - N 1008,1 13 -
09.12.2019 13:00:00 21,1 18,3 9 5 - - NE 1009,4 10 -
09.12.2019 12:00:00 19,4 18,3 0 0 - - N 1010,6 8 -
09.12.2019 11:00:00 18,3 18,3 9 5 - - N 1011,4 2,8 -
09.12.2019 10:00:00 17,8 17,8 0 0 - - N 1010,9 2,0 -
09.12.2019 09:00:00 17,8 17,8 5 3 - - NNW 1011,1 1,2 -
09.12.2019 08:00:00 17,2 17,2 0 0 - - N 1010,8 0,4 -
09.12.2019 07:00:00 17,2 17,2 0 0 - - N 1010,3 0,4 -
09.12.2019 06:00:00 17,2 17,2 0 0 - - N 1009,7 0,4 -
09.12.2019 05:00:00 16,7 16,7 5 3 - - SSW 1009,5 0,4 -
09.12.2019 04:00:00 16,7 16,7 0 0 - - N 1009,6 0,8 -
09.12.2019 03:00:00 16,7 16,7 5 3 - - S 1009,9 0,8 -
09.12.2019 02:00:00 16,1 16,1 9 5 - - S 1010,2 2,8 -
09.12.2019 01:00:00 15,0 15,0 0 0 - - N 1010,7 16 -
09.12.2019 00:00:00 15,6 15,0 8 4 - - S 1011,5 16 -
08.12.2019 23:00:00 15,0 13,3 0 0 - - N 1011,8 16 -
08.12.2019 22:00:00 15,6 12,8 8 4 - - SSE 1012,1 16 -
08.12.2019 21:00:00 17,8 13,3 8 4 - - SSE 1012,4 16 -
08.12.2019 20:00:00 16,1 12,2 0 0 - - N 1012,3 16 -
08.12.2019 19:00:00 18,3 12,8 9 5 - - SSE 1011,3 16 -
08.12.2019 18:00:00 20,0 12,8 9 5 - - SSE 1011,5 16 -
08.12.2019 17:00:00 23,3 13,3 9 5 - - SSE 1011,8 16 -
08.12.2019 16:00:00 23,9 13,3 13 7 - - S 1012,5 16 -
08.12.2019 15:00:00 23,3 12,8 13 7 - - SSW 1012,9 16 -
08.12.2019 14:00:00 22,2 12,2 16 9 - - S 1013,4 16 -
08.12.2019 13:00:00 21,1 10,6 16 9 - - SSW 1014,8 16 -
08.12.2019 12:00:00 18,9 13,3 15 8 - - S 1016,6 16 -
08.12.2019 11:00:00 15,0 13,3 5 3 - - - 1018,1 10 -
08.12.2019 10:00:00 12,8 12,8 8 4 - - SW 1018,6 2,0 -
08.12.2019 09:00:00 11,7 11,7 5 3 - - SSW 1018,2 0,8 -
08.12.2019 08:00:00 10,0 9,4 0 0 - - N 1018,4 4,8 -
08.12.2019 07:00:00 6,7 6,7 0 0 - - N 1017,9 10 -
08.12.2019 06:00:00 7,2 6,7 0 0 - - N 1017,5 10 -
08.12.2019 05:00:00 7,2 7,2 0 0 - - N 1017,3 8 -
08.12.2019 04:00:00 7,2 7,2 0 0 - - N 1018,4 11 -
08.12.2019 03:00:00 7,8 7,2 0 0 - - N 1018,9 15 -
08.12.2019 02:00:00 7,8 7,2 0 0 - - N 1019,2 15 -
08.12.2019 01:00:00 9,4 7,2 0 0 - - N 1020,1 16 -
08.12.2019 00:00:00 8,9 7,2 0 0 - - N 1020,4 16 -
07.12.2019 23:00:00 10,0 7,2 0 0 - - N 1021,1 16 -
07.12.2019 22:00:00 10,0 7,2 0 0 - - N 1021,2 16 -
07.12.2019 21:00:00 11,1 7,8 5 3 - - E 1021,4 16 -
07.12.2019 20:00:00 12,2 7,8 0 0 - - N 1021,2 16 -
07.12.2019 19:00:00 13,9 7,8 0 0 - - N 1021,6 16 -
07.12.2019 18:00:00 16,1 7,8 8 4 - - SSE 1021,3 16 -
07.12.2019 17:00:00 19,4 7,8 8 4 - - SSE 1021,1 16 -
07.12.2019 16:00:00 20,6 7,8 8 4 - - SSE 1021,1 16 -
07.12.2019 15:00:00 20,6 8,9 8 4 - - SSE 1021,7 16 -
07.12.2019 14:00:00 20,0 8,3 5 3 - - S 1022,6 16 -
07.12.2019 13:00:00 18,9 7,2 5 3 - - NE 1023,9 16 -
07.12.2019 12:00:00 17,2 5,6 0 0 - - N 1025,4 16 -
07.12.2019 11:00:00 15,6 4,4 8 4 - - ENE 1026,3 16 -
07.12.2019 10:00:00 13,9 3,9 15 8 - - NNE 1026,6 16 -
07.12.2019 09:00:00 11,1 3,9 13 7 - - NNE 1026,1 16 -
07.12.2019 08:00:00 8,9 3,9 8 4 - - NNE 1026,2 16 -
07.12.2019 07:00:00 8,3 3,9 11 6 - - N 1025,5 16 -
07.12.2019 06:00:00 8,3 3,9 9 5 - - N 1025,0 16 -
07.12.2019 05:00:00 8,9 3,9 9 5 - - NNE 1024,6 16 -
07.12.2019 04:00:00 8,9 3,9 9 5 - - N 1024,7 16 -
07.12.2019 03:00:00 9,4 4,4 9 5 - - NNE 1024,8 16 -
07.12.2019 02:00:00 11,1 4,4 9 5 - - N 1024,8 16 -
07.12.2019 01:00:00 12,2 4,4 11 6 - - NNE 1024,9 16 -
07.12.2019 00:00:00 12,8 4,4 5 3 - - N 1024,8 16 -
06.12.2019 23:00:00 13,9 5,0 9 5 - - NNE 1024,7 16 -
06.12.2019 22:00:00 13,9 5,6 11 6 - - NNE 1024,5 16 -

tt = temperature
td = dewpoint
ff = wind speed
fx = gusts
dd = wind direction
ppp = reduced air pressure
vv = visibility
rr = precipitation

Next stations